Temp
12 12 11 11 11 11 11 10 10 10 9 9 8 7 6 6 6 6 5 5 5 5 5 5 5 5 5 5 5 5 5 4
12 11 11 11 11 11 11 11 10 10 9 9 8 7 6 6 6 6 5 5 5 5 5 5 5 5 5 5 5 5 4 5
12 11 11 11 11 11 11 11 10 10 9 9 8 8 7 6 6 6 5 5 5 5 5 5 5 5 5 5 5 5 4 4
10 11 10 10 11 11 10 10 10 10 10 10 9 8 7 6 6 6 6 6 6 6 6 5 5 5 5 4 5 4 3 4
7 9 10 10 10 11 10 10 10 10 10 10 9 9 8 7 7 7 7 6 6 6 6 6 6 5 5 5 4 4 4 4
7 7 9 10 10 10 10 10 10 10 10 10 9 9 8 8 7 7 7 7 6 6 6 6 6 6 6 5 5 5 3 4
7 6 6 8 9 9 10 10 10 10 10 9 9 9 8 8 7 7 7 7 7 6 6 6 6 6 6 5 5 5 4 4
8 6 5 6 7 7 8 10 10 10 9 9 9 9 8 7 7 7 7 7 6 7 6 6 6 6 6 6 6 6 5 4
7 7 5 5 7 7 7 9 10 10 9 9 9 9 8 7 7 7 7 7 6 7 7 7 6 6 6 6 6 6 6 5
6 6 5 5 5 6 6 7 9 9 9 9 9 9 8 7 7 7 6 7 6 7 7 6 6 6 6 6 6 6 6 6
3 4 5 4 6 6 7 6 7 9 9 9 9 9 8 8 7 7 6 6 6 6 6 7 6 6 6 6 6 6 6 5
2 2 5 4 3 6 6 6 6 8 8 8 9 9 8 8 7 7 6 6 6 6 6 6 6 6 6 5 6 5 6 6
3 4 4 4 4 3 6 6 7 7 8 9 8 8 8 8 7 7 6 6 6 6 6 6 6 6 6 6 6 5 5 5
4 4 5 5 4 3 3 5 6 6 7 9 8 8 8 8 8 7 7 6 6 6 6 6 6 6 6 6 6 6 6 5
3 4 4 2 3 4 2 5 5 5 6 8 8 8 8 7 8 7 7 7 6 6 6 6 6 6 5 5 5 5 5 5
1 2 3 3 1 3 3 2 4 5 6 8 8 8 8 7 8 7 7 7 6 6 7 6 6 6 6 6 5 5 4 5
0 -0 1 1 1 -1 2 1 3 4 5 6 7 8 8 8 8 8 7 7 6 6 7 7 6 6 6 6 5 4 3 4
0 -0 -0 1 -0 -1 0 2 2 4 4 5 5 8 8 8 7 7 7 6 7 7 7 7 6 6 6 6 4 5 4 3
-1 -2 -1 -1 -1 -2 1 1 1 4 5 5 5 7 8 8 7 7 7 7 6 6 6 6 6 6 6 5 4 4 4 3
-2 -2 -1 -2 -2 -2 -2 0 1 3 3 3 5 7 8 8 7 7 7 7 6 6 6 5 6 6 6 4 5 5 4 2
Height
3140 3140 3142 3143 3145 3146 3147 3148 3148 3149 3149 3150 3151 3152 3153 3155 3156 3157 3159 3160 3161 3161 3162 3162 3163 3164 3164 3164 3164 3164 3164 3164
3138 3139 3140 3141 3142 3143 3145 3145 3146 3146 3147 3147 3148 3149 3151 3153 3154 3156 3157 3159 3159 3160 3160 3161 3162 3163 3164 3164 3164 3163 3163 3163
3135 3137 3138 3138 3139 3140 3141 3142 3143 3144 3144 3145 3145 3146 3148 3150 3152 3154 3155 3156 3157 3158 3159 3159 3161 3162 3162 3163 3163 3163 3161 3162
3130 3132 3134 3135 3135 3137 3138 3139 3140 3140 3141 3142 3143 3144 3146 3148 3150 3151 3153 3154 3155 3156 3157 3158 3159 3160 3161 3161 3161 3162 3160 3162
3128 3126 3128 3131 3132 3133 3133 3135 3136 3137 3138 3139 3140 3142 3144 3145 3147 3148 3151 3152 3153 3155 3156 3156 3157 3158 3159 3159 3159 3160 3159 3161
3128 3124 3121 3123 3126 3127 3130 3131 3132 3133 3134 3136 3136 3139 3141 3143 3144 3146 3148 3149 3151 3152 3154 3155 3155 3156 3156 3157 3157 3158 3156 3159
3118 3119 3116 3116 3120 3122 3123 3126 3127 3129 3131 3132 3132 3134 3137 3139 3142 3143 3145 3147 3148 3150 3152 3153 3154 3154 3153 3155 3155 3156 3156 3157
3112 3111 3110 3110 3112 3116 3117 3119 3123 3124 3125 3127 3128 3130 3133 3135 3138 3140 3142 3144 3146 3147 3149 3151 3152 3153 3152 3153 3153 3154 3155 3155
3102 3105 3104 3103 3104 3107 3110 3112 3115 3118 3120 3122 3124 3125 3128 3131 3134 3136 3139 3141 3143 3144 3145 3146 3149 3150 3151 3151 3152 3152 3152 3153
3092 3095 3097 3094 3096 3096 3100 3103 3107 3109 3113 3115 3119 3119 3122 3125 3129 3131 3135 3137 3139 3140 3142 3144 3146 3147 3148 3149 3150 3150 3151 3151
3082 3083 3086 3087 3085 3089 3090 3095 3097 3100 3105 3107 3111 3114 3116 3119 3123 3127 3130 3133 3135 3137 3138 3140 3142 3144 3146 3147 3147 3147 3148 3149
3065 3071 3071 3075 3077 3077 3080 3082 3087 3089 3093 3099 3104 3108 3109 3112 3117 3121 3125 3127 3130 3132 3135 3136 3139 3141 3142 3143 3144 3144 3145 3145
3055 3057 3057 3062 3065 3064 3068 3071 3075 3080 3083 3091 3096 3100 3103 3105 3110 3114 3117 3122 3125 3128 3131 3132 3134 3136 3138 3139 3140 3141 3141 3142
3044 3044 3045 3050 3052 3053 3054 3059 3064 3069 3075 3082 3086 3089 3095 3098 3102 3105 3109 3115 3119 3122 3124 3127 3129 3131 3132 3134 3134 3136 3136 3137
3031 3030 3031 3032 3038 3043 3044 3045 3052 3056 3063 3068 3074 3078 3088 3092 3095 3097 3104 3107 3111 3115 3119 3121 3124 3126 3126 3128 3127 3128 3130 3131
3015 3017 3018 3019 3023 3026 3033 3034 3036 3044 3051 3055 3060 3068 3077 3083 3087 3091 3097 3101 3103 3106 3112 3115 3118 3120 3120 3122 3122 3123 3123 3122
3005 3005 3007 3005 3004 3011 3014 3020 3023 3030 3039 3043 3045 3059 3063 3074 3079 3084 3087 3093 3096 3098 3104 3108 3111 3113 3116 3116 3116 3117 3118 3116
2995 2994 2996 2996 2996 2995 2997 3003 3012 3016 3023 3030 3034 3043 3051 3062 3071 3075 3080 3082 3088 3093 3097 3101 3104 3106 3108 3111 3110 3109 3109 3108
2983 2982 2984 2983 2984 2983 2988 2990 2994 3004 3007 3014 3021 3029 3038 3050 3060 3065 3070 3073 3078 3084 3088 3091 3095 3098 3099 3102 3101 3099 3098 3097
2970 2970 2972 2972 2971 2972 2978 2978 2979 2984 2976 2995 3003 3015 3027 3038 3050 3057 3061 3063 3068 3074 3077 3082 3083 3088 3090 3091 3091 3091 3088 3089
Wind_Speed
19 23 23 21 18 16 16 15 14 13 13 11 10 12 12 11 11 10 9 7 5 4 3 4 4 3 2 3 4 5 6 3
20 24 25 23 20 19 18 18 16 15 15 14 14 15 15 14 13 12 10 9 7 6 5 5 5 4 3 3 4 5 6 7
24 25 26 25 23 21 21 21 20 18 17 17 17 18 18 17 16 15 13 12 10 8 7 6 6 5 4 4 6 7 8 6
27 27 29 29 27 25 24 24 24 21 20 20 20 20 19 18 18 17 15 14 12 10 8 7 6 6 6 5 6 6 4 9
26 31 33 33 32 29 29 28 26 24 22 22 21 21 20 20 20 19 16 14 12 11 9 8 8 8 8 7 7 8 11 11
12 30 34 36 36 36 32 31 30 28 25 24 23 22 21 20 20 19 17 15 14 12 11 9 9 9 8 8 8 8 6 13
26 14 33 35 38 38 38 35 32 31 28 27 25 24 23 21 20 22 19 16 15 14 12 10 9 9 8 6 8 8 9 12
34 29 24 38 39 40 41 41 36 33 31 30 28 27 24 24 22 23 21 19 17 15 13 12 10 9 6 6 7 8 10 13
29 38 32 35 42 43 42 45 43 38 34 33 31 30 26 26 26 25 23 21 19 16 14 11 10 7 5 5 4 5 6 8
31 33 39 36 44 45 44 47 48 45 40 36 33 33 32 28 29 27 26 23 22 19 16 14 12 10 9 8 7 6 6 7
33 34 41 40 50 47 47 44 50 49 45 42 38 36 36 32 30 30 29 27 25 22 19 16 14 14 14 14 12 13 10 10
33 37 41 47 40 52 48 47 49 53 51 46 42 37 39 38 32 32 31 30 26 25 22 20 17 16 18 18 17 18 17 17
47 41 34 45 49 48 49 50 53 53 58 51 45 42 39 40 36 34 34 31 26 25 24 23 19 21 21 21 21 21 21 21
43 45 45 40 47 48 49 49 52 54 56 55 50 48 44 42 40 40 36 33 30 28 27 25 24 24 24 24 27 26 24 24
42 45 45 45 45 51 47 51 48 50 54 60 56 52 47 45 43 44 37 34 33 31 29 28 26 27 28 28 31 31 29 27
30 41 44 47 40 47 58 54 49 53 53 61 63 54 51 48 48 46 40 37 37 35 31 30 30 30 32 32 34 31 28 31
29 35 35 42 46 44 55 56 60 48 53 59 63 57 56 51 50 47 44 41 40 39 34 33 32 34 35 35 37 33 31 32
30 30 38 41 46 44 46 67 62 50 51 59 59 61 58 53 50 47 46 45 43 39 36 35 35 35 33 35 38 43 44 43
23 26 36 44 46 45 48 64 63 65 58 62 62 63 61 57 53 51 49 48 44 41 39 37 35 32 36 39 38 37 40 43
27 27 30 39 45 49 50 52 67 70 64 55 57 66 64 59 55 52 50 50 46 43 42 33 33 30 30 29 31 31 31 42
Wind_Direction
224 218 214 215 224 235 239 245 253 258 257 244 216 194 192 196 193 192 202 214 233 244 238 215 234 246 263 305 306 290 290 282
230 229 222 222 227 238 239 243 246 249 251 242 223 204 197 201 200 202 210 218 232 238 230 226 235 243 253 285 279 285 268 259
243 233 229 226 231 237 239 241 246 246 243 240 227 218 206 202 204 206 214 220 227 230 229 233 238 240 245 269 275 284 271 303
252 239 236 234 232 236 239 241 244 246 246 242 236 224 215 209 209 212 218 223 225 227 228 232 242 242 237 252 271 287 271 262
289 259 243 239 238 235 238 241 243 245 245 245 239 231 218 213 211 215 220 226 226 226 226 230 240 241 240 232 256 267 264 290
257 287 264 245 240 241 237 239 243 244 240 243 239 233 221 219 216 217 220 222 222 222 222 229 242 254 240 227 242 265 251 271
205 243 271 259 246 243 241 239 240 244 240 240 237 231 221 222 220 222 222 219 221 219 218 226 232 252 261 260 260 249 251 239
236 217 245 256 248 248 243 242 240 242 239 238 236 232 221 223 220 222 219 218 223 215 222 217 225 233 246 262 262 255 252 259
245 233 230 248 252 241 250 242 244 242 243 238 234 231 222 222 222 220 221 218 220 220 221 230 231 235 240 256 286 286 289 272
257 234 229 235 249 252 239 242 240 243 244 242 233 230 223 220 222 220 219 218 221 219 218 226 233 243 256 258 269 284 290 301
267 252 225 234 243 249 249 241 238 238 241 243 236 229 227 222 222 220 217 220 219 221 223 226 231 245 255 266 271 273 273 281
253 250 243 224 238 245 248 242 237 237 236 239 238 230 229 224 222 221 219 218 218 221 224 230 232 241 252 261 265 270 276 278
274 270 247 244 224 237 242 241 238 233 236 235 238 232 228 227 223 220 222 223 221 223 228 234 236 244 252 257 265 269 270 274
263 270 271 265 246 227 238 240 240 237 234 232 235 231 226 226 226 225 222 220 222 223 231 237 244 249 257 264 267 269 270 274
262 258 263 264 246 238 232 236 240 237 229 233 229 232 226 224 227 229 226 223 226 230 234 239 247 253 258 260 264 267 270 269
267 261 255 257 255 239 226 233 237 238 227 230 231 229 227 222 224 228 227 224 227 233 237 245 249 254 257 260 262 265 268 271
271 260 253 249 240 245 224 226 228 233 231 227 230 226 229 223 224 227 229 226 227 234 241 248 257 260 263 265 263 259 262 265
282 270 253 249 244 236 232 222 227 229 228 226 226 224 227 226 225 226 229 232 234 240 245 252 258 263 270 271 284 276 275 261
288 277 252 239 241 243 241 222 219 226 225 224 227 225 225 226 225 225 228 234 238 242 247 252 260 266 268 265 274 277 276 258
296 294 273 249 245 244 247 242 221 227 232 221 225 225 223 226 227 228 231 236 238 242 242 247 252 259 267 264 270 281 284 269